This is the latest recevied weather packets stored in our database for station/object DB0BGL. If no packets are shown the sender has not sent any weather packets the latest 10 day(s).
| Time | Temp. | Humidity | Pressure | Rain* | Wind** | Luminosity | Snow |
|---|---|---|---|---|---|---|---|
| 1777803371 | 14.44° C | 40% | 0 hPa | 0 mm | - | - | - |
| 1777802819 | 15° C | 100% | 0 hPa | 0 mm | - | - | - |
| 1777802769 | 15° C | 100% | 0 hPa | 0 mm | - | - | - |
| 1777802169 | 15.56° C | 38% | 0 hPa | 0 mm | - | - | - |
| 1777800969 | 16.67° C | 34% | 0 hPa | 0 mm | - | - | - |
| 1777800370 | 16.67° C | 34% | 0 hPa | 0 mm | - | - | - |
| 1777799767 | 16.67° C | 34% | 0 hPa | 0 mm | - | - | - |
| 1777799167 | 17.22° C | 32% | 0 hPa | 0 mm | - | - | - |
| 1777798565 | 18.33° C | 32% | 0 hPa | 0 mm | - | - | - |
| 1777797966 | 19.44° C | 29% | 0 hPa | 0 mm | - | - | - |
| 1777797365 | 20.56° C | 27% | 0 hPa | 0 mm | - | - | - |
| 1777796764 | 21.67° C | 25% | 0 hPa | 0 mm | - | - | - |
| 1777796164 | 22.22° C | 24% | 0 hPa | 0 mm | - | - | - |
| 1777795564 | 21.67° C | 26% | 0 hPa | 0 mm | - | - | - |
| 1777794962 | 20.56° C | 27% | 0 hPa | 0 mm | - | - | - |
| 1777794361 | 20° C | 100% | 0 hPa | 0 mm | - | - | - |
| 1777793761 | 18.89° C | 28% | 0 hPa | 0 mm | - | - | - |
| 1777793162 | 18.89° C | 28% | 0 hPa | 0 mm | - | - | - |
| 1777792560 | 20.56° C | 26% | 0 hPa | 0 mm | - | - | - |
| 1777791959 | 21.11° C | 25% | 0 hPa | 0 mm | - | - | - |
| 1777791358 | 20.56° C | 26% | 0 hPa | 0 mm | - | - | - |
| 1777790758 | 20.56° C | 25% | 0 hPa | 0 mm | - | - | - |
| 1777790157 | 21.11° C | 24% | 0 hPa | 0 mm | - | - | - |
| 1777789557 | 20° C | 25% | 0 hPa | 0 mm | - | - | - |
| 1777788956 | 20.56° C | 24% | 0 hPa | 0 mm | - | - | - |
* Rain latest hour (hover to see other rain measurements)
** Current wind speed in m/s (hover to see current wind gust speed)